| time (UTC) | temp C | wind direction | speed KPH | gust KPH | rain 1hr cm | rain 24hr cm | rain mn cm | humidity % | barometer mb |
| 20260504150752 | 18 | 215 | 8.0 | 22.5 | 0.00 | 0.00 | 0.00 | 37 | 1011.1 |
| 20260504150247 | 18 | 240 | 11.3 | 25.7 | 0.00 | 0.00 | 0.00 | 40 | 1011.1 |
| 20260504140700 | 16 | 217 | 6.4 | 19.3 | 0.00 | 0.00 | 0.00 | 50 | 1011.4 |
| 20260504140200 | 16 | 210 | 8.0 | 19.3 | 0.00 | 0.00 | 0.00 | 51 | 1011.4 |
| 20260504130657 | 14 | 260 | 4.8 | 16.1 | 0.00 | 0.00 | 0.00 | 46 | 1011.8 |
| 20260504130156 | 14 | 221 | 4.8 | 16.1 | 0.00 | 0.00 | 0.00 | 51 | 1011.8 |
| 20260504110106 | 3 | 228 | 3.2 | 8.0 | 0.00 | 0.00 | 0.00 | 78 | 1012.3 |
| 20260504100500 | 3 | 227 | 0.0 | 4.8 | 0.00 | 0.00 | 0.00 | 69 | 1012.1 |
| 20260504081754 | 7 | 285 | 3.2 | 14.5 | 0.00 | 0.00 | 0.00 | 59 | 1011.7 |
| 20260504081248 | 7 | 251 | 4.8 | 14.5 | 0.00 | 0.00 | 0.00 | 59 | 1011.7 |
| 20260504081019 | 7 | 229 | 4.8 | 12.9 | 0.00 | 0.00 | 0.00 | 59 | 1011.7 |
| 20260504080248 | 6 | 284 | 4.8 | 14.5 | 0.00 | 0.00 | 0.00 | 60 | 1011.7 |
| 20260504070242 | 6 | 266 | 3.2 | 12.9 | 0.00 | 0.00 | 0.00 | 60 | 1011.5 |
| 20260504060228 | 7 | 275 | 3.2 | 12.9 | 0.00 | 0.00 | 0.00 | 60 | 1011.2 |
| 20260504050636 | 6 | 321 | 3.2 | 22.5 | 0.00 | 0.00 | 0.00 | 62 | 1011.1 |
| 20260504050137 | 6 | 261 | 3.2 | 14.5 | 0.00 | 0.00 | 0.00 | 63 | 1011.1 |
| 20260504045635 | 6 | 269 | 3.2 | 14.5 | 0.00 | 0.00 | 0.00 | 63 | 1011.2 |
| 20260504045137 | 6 | 260 | 3.2 | 9.7 | 0.00 | 0.00 | 0.00 | 64 | 1011.2 |
| 20260504044639 | 6 | 286 | 3.2 | 9.7 | 0.00 | 0.00 | 0.00 | 64 | 1011.1 |
| 20260504044137 | 5 | 304 | 3.2 | 9.7 | 0.00 | 0.00 | 0.00 | 64 | 1011.1 |
| 20260504043909 | 5 | 246 | 3.2 | 9.7 | 0.00 | 0.00 | 0.00 | 65 | 1011.1 |
| 20260504043133 | 5 | 246 | 1.6 | 9.7 | 0.00 | 0.00 | 0.00 | 65 | 1011.1 |
| 20260504042634 | 5 | 234 | 1.6 | 6.4 | 0.00 | 0.00 | 0.00 | 65 | 1011.1 |
| 20260504042404 | 5 | 295 | 1.6 | 9.7 | 0.00 | 0.00 | 0.00 | 66 | 1011.1 |
| 20260504041905 | 5 | 263 | 1.6 | 9.7 | 0.00 | 0.00 | 0.00 | 68 | 1011.0 |
| 20260504041134 | 5 | 247 | 1.6 | 6.4 | 0.00 | 0.00 | 0.00 | 70 | 1010.8 |
| 20260504040910 | 4 | 234 | 1.6 | 8.0 | 0.00 | 0.00 | 0.00 | 73 | 1010.8 |
| 20260504040634 | 5 | 241 | 1.6 | 8.0 | 0.00 | 0.00 | 0.00 | 71 | 1010.8 |
| 20260504035632 | 4 | 260 | 1.6 | 4.8 | 0.00 | 0.00 | 0.00 | 74 | 1010.7 |
| 20260504035357 | 4 | 282 | 1.6 | 3.2 | 0.00 | 0.00 | 0.00 | 75 | 1010.6 |
| 20260504034621 | 4 | 248 | 1.6 | 3.2 | 0.00 | 0.00 | 0.00 | 75 | 1010.7 |
| 20260504034117 | 4 | 272 | 1.6 | 4.8 | 0.00 | 0.00 | 0.00 | 75 | 1010.8 |
| 20260504033618 | 3 | 256 | 1.6 | 4.8 | 0.00 | 0.00 | 0.00 | 77 | 1010.7 |
| 20260504033117 | 3 | 271 | 0.0 | 3.2 | 0.00 | 0.00 | 0.00 | 77 | 1010.7 |
| 20260504032618 | 3 | 246 | 0.0 | 3.2 | 0.00 | 0.00 | 0.00 | 77 | 1010.7 |
| 20260504032118 | 3 | 265 | 0.0 | 3.2 | 0.00 | 0.00 | 0.00 | 77 | 1010.7 |
| 20260504031618 | 3 | 265 | 0.0 | 3.2 | 0.00 | 0.00 | 0.00 | 76 | 1010.7 |
| 20260504031118 | 3 | 268 | 0.0 | 4.8 | 0.00 | 0.00 | 0.00 | 76 | 1010.6 |
| 20260504030618 | 3 | 268 | 0.0 | 4.8 | 0.00 | 0.00 | 0.00 | 76 | 1010.6 |
| 20260504030118 | 3 | 252 | 0.0 | 1.6 | 0.00 | 0.00 | 0.00 | 76 | 1010.6 |
| 20260504025848 | 3 | 250 | 0.0 | 3.2 | 0.00 | 0.00 | 0.00 | 75 | 1010.6 |
| 20260504025117 | 4 | 250 | 1.6 | 6.4 | 0.00 | 0.00 | 0.00 | 73 | 1010.7 |
| 20260504024619 | 3 | 247 | 1.6 | 6.4 | 0.00 | 0.00 | 0.00 | 74 | 1010.8 |
| 20260504024117 | 3 | 233 | 0.0 | 4.8 | 0.00 | 0.00 | 0.00 | 75 | 1010.7 |
| 20260504023849 | 3 | 229 | 0.0 | 4.8 | 0.00 | 0.00 | 0.00 | 74 | 1010.6 |
| 20260504023118 | 3 | 233 | 0.0 | 4.8 | 0.00 | 0.00 | 0.00 | 73 | 1010.6 |
| 20260504022617 | 3 | 256 | 0.0 | 3.2 | 0.00 | 0.00 | 0.00 | 72 | 1010.7 |
| 20260504022117 | 4 | 258 | 0.0 | 3.2 | 0.00 | 0.00 | 0.00 | 71 | 1010.7 |
| 20260504021617 | 5 | 284 | 0.0 | 4.8 | 0.00 | 0.00 | 0.00 | 71 | 1010.7 |
| 20260504021109 | 4 | 279 | 0.0 | 4.8 | 0.00 | 0.00 | 0.00 | 70 | 1010.7 |
| 20260504020604 | 5 | 249 | 0.0 | 3.2 | 0.00 | 0.00 | 0.00 | 68 | 1010.8 |
| 20260504020058 | 5 | 254 | 0.0 | 3.2 | 0.00 | 0.00 | 0.00 | 67 | 1010.8 |
| 20260504015824 | 5 | 259 | 0.0 | 3.2 | 0.00 | 0.00 | 0.00 | 64 | 1010.7 |
| 20260504015316 | 5 | 260 | 0.0 | 1.6 | 0.00 | 0.00 | 0.00 | 64 | 1010.8 |
| 20260504014540 | 5 | 260 | 0.0 | 3.2 | 0.00 | 0.00 | 0.00 | 62 | 1010.7 |
| 20260504014033 | 5 | 257 | 0.0 | 3.2 | 0.00 | 0.00 | 0.00 | 61 | 1010.7 |
| 20260504013758 | 6 | 261 | 0.0 | 1.6 | 0.00 | 0.00 | 0.00 | 60 | 1010.6 |
| 20260504013022 | 6 | 261 | 0.0 | 3.2 | 0.00 | 0.00 | 0.00 | 60 | 1010.5 |
| 20260504012516 | 6 | 261 | 0.0 | 3.2 | 0.00 | 0.00 | 0.00 | 60 | 1010.4 |
| 20260504012009 | 6 | 265 | 0.0 | 0.0 | 0.00 | 0.00 | 0.00 | 57 | 1010.5 |
| 20260504011504 | 6 | 265 | 0.0 | 1.6 | 0.00 | 0.00 | 0.00 | 58 | 1010.4 |
| 20260504011228 | 7 | 265 | 0.0 | 3.2 | 0.00 | 0.00 | 0.00 | 54 | 1010.3 |
| 20260504010451 | 7 | 264 | 0.0 | 3.2 | 0.00 | 0.00 | 0.00 | 54 | 1010.3 |
| 20260504005946 | 8 | 281 | 0.0 | 4.8 | 0.00 | 0.00 | 0.00 | 52 | 1010.2 |
| 20260504005440 | 8 | 281 | 0.0 | 4.8 | 0.00 | 0.00 | 0.00 | 50 | 1010.1 |
| 20260504004934 | 8 | 286 | 1.6 | 6.4 | 0.00 | 0.00 | 0.00 | 49 | 1010.1 |
| 20260504004428 | 8 | 286 | 1.6 | 6.4 | 0.00 | 0.00 | 0.00 | 49 | 1010.0 |
| 20260504003921 | 8 | 287 | 1.6 | 4.8 | 0.00 | 0.00 | 0.00 | 48 | 1010.0 |
| 20260504003416 | 8 | 284 | 1.6 | 6.4 | 0.00 | 0.00 | 0.00 | 48 | 1009.9 |
| 20260504002909 | 9 | 298 | 3.2 | 6.4 | 0.00 | 0.00 | 0.00 | 47 | 1009.9 |
| 20260504002403 | 9 | 273 | 3.2 | 9.7 | 0.00 | 0.00 | 0.00 | 49 | 1009.8 |
| 20260504001858 | 9 | 281 | 3.2 | 11.3 | 0.00 | 0.00 | 0.00 | 46 | 1009.8 |
| 20260504001352 | 10 | 264 | 4.8 | 11.3 | 0.00 | 0.00 | 0.00 | 44 | 1009.7 |
| 20260504000845 | 10 | 266 | 4.8 | 11.3 | 0.00 | 0.00 | 0.00 | 44 | 1009.7 |
| 20260504000340 | 10 | 305 | 4.8 | 14.5 | 0.00 | 0.00 | 0.00 | 43 | 1009.5 |
| 20260503235834 | 11 | 300 | 6.4 | 14.5 | 0.00 | 0.00 | 0.00 | 43 | 1009.4 |
| 20260503235328 | 11 | 307 | 6.4 | 16.1 | 0.00 | 0.00 | 0.00 | 42 | 1009.3 |
| 20260503234822 | 11 | 281 | 8.0 | 22.5 | 0.00 | 0.00 | 0.00 | 38 | 1009.3 |
| 20260503234315 | 11 | 273 | 8.0 | 25.7 | 0.00 | 0.00 | 0.00 | 39 | 1009.3 |
| 20260503233809 | 12 | 258 | 8.0 | 25.7 | 0.00 | 0.00 | 0.00 | 37 | 1009.2 |
| 20260503233304 | 12 | 286 | 8.0 | 17.7 | 0.00 | 0.00 | 0.00 | 38 | 1009.1 |
| 20260503232757 | 12 | 283 | 8.0 | 20.9 | 0.00 | 0.00 | 0.00 | 36 | 1009.1 |
| 20260503232523 | 12 | 325 | 8.0 | 20.9 | 0.00 | 0.00 | 0.00 | 35 | 1009.1 |
| 20260503231746 | 13 | 277 | 11.3 | 25.7 | 0.00 | 0.00 | 0.00 | 34 | 1009.1 |
| 20260503231240 | 13 | 324 | 14.5 | 27.4 | 0.00 | 0.00 | 0.00 | 33 | 1009.1 |
| 20260503230734 | 13 | 344 | 12.9 | 27.4 | 0.00 | 0.00 | 0.00 | 33 | 1009.1 |
| 20260503230228 | 13 | 286 | 8.0 | 20.9 | 0.00 | 0.00 | 0.00 | 34 | 1009.0 |
| 20260503225722 | 13 | 331 | 8.0 | 20.9 | 0.00 | 0.00 | 0.00 | 34 | 1008.9 |
| 20260503225215 | 13 | 325 | 9.7 | 20.9 | 0.00 | 0.00 | 0.00 | 33 | 1008.9 |
| 20260503224709 | 13 | 306 | 8.0 | 19.3 | 0.00 | 0.00 | 0.00 | 34 | 1008.8 |
| 20260503224203 | 12 | 307 | 6.4 | 17.7 | 0.00 | 0.00 | 0.00 | 34 | 1008.8 |
| 20260503223657 | 12 | 263 | 6.4 | 16.1 | 0.00 | 0.00 | 0.00 | 37 | 1008.8 |
| 20260503223154 | 13 | 322 | 9.7 | 24.1 | 0.00 | 0.00 | 0.00 | 33 | 1008.7 |
| 20260503222655 | 13 | 348 | 12.9 | 30.6 | 0.00 | 0.00 | 0.00 | 33 | 1008.8 |
| 20260503222155 | 13 | 317 | 11.3 | 30.6 | 0.00 | 0.00 | 0.00 | 33 | 1008.8 |
| 20260503221656 | 13 | 300 | 9.7 | 24.1 | 0.00 | 0.00 | 0.00 | 33 | 1008.8 |
| 20260503221155 | 13 | 309 | 11.3 | 32.2 | 0.00 | 0.00 | 0.00 | 32 | 1008.8 |
| 20260503220654 | 14 | 318 | 9.7 | 32.2 | 0.00 | 0.00 | 0.00 | 31 | 1008.8 |
| 20260503220156 | 14 | 325 | 8.0 | 19.3 | 0.00 | 0.00 | 0.00 | 33 | 1008.7 |
| 20260503215655 | 14 | 262 | 9.7 | 25.7 | 0.00 | 0.00 | 0.00 | 33 | 1008.6 |
| 20260503215430 | 14 | 41 | 12.9 | 25.7 | 0.00 | 0.00 | 0.00 | 30 | 1008.7 |
| 20260503214927 | 14 | 324 | 11.3 | 25.7 | 0.00 | 0.00 | 0.00 | 33 | 1008.7 |
| 20260503214154 | 14 | 290 | 11.3 | 25.7 | 0.00 | 0.00 | 0.00 | 31 | 1008.7 |
| 20260503213654 | 14 | 328 | 12.9 | 25.7 | 0.00 | 0.00 | 0.00 | 33 | 1008.7 |
| 20260503213426 | 14 | 275 | 12.9 | 25.7 | 0.00 | 0.00 | 0.00 | 30 | 1008.7 |
| 20260503212655 | 14 | 355 | 14.5 | 32.2 | 0.00 | 0.00 | 0.00 | 32 | 1008.7 |
| 20260503212429 | 14 | 329 | 16.1 | 32.2 | 0.00 | 0.00 | 0.00 | 31 | 1008.5 |
| 20260503211657 | 14 | 313 | 12.9 | 37.0 | 0.00 | 0.00 | 0.00 | 31 | 1008.7 |
| 20260503211158 | 14 | 309 | 14.5 | 37.0 | 0.00 | 0.00 | 0.00 | 31 | 1008.7 |
| 20260503210652 | 14 | 311 | 16.1 | 35.4 | 0.00 | 0.00 | 0.00 | 31 | 1008.7 |
| 20260503210144 | 14 | 330 | 19.3 | 40.2 | 0.00 | 0.00 | 0.00 | 32 | 1008.7 |
| 20260503210139 | 14 | 296 | 17.7 | 40.2 | 0.00 | 0.00 | 0.00 | 30 | 1008.7 |
| 20260503205402 | 14 | 320 | 16.1 | 37.0 | 0.00 | 0.00 | 0.00 | 31 | 1008.7 |
| 20260503204630 | 14 | 336 | 16.1 | 37.0 | 0.00 | 0.00 | 0.00 | 32 | 1008.5 |
| 20260503204130 | 14 | 311 | 16.1 | 38.6 | 0.00 | 0.00 | 0.00 | 31 | 1008.6 |
| 20260503203901 | 13 | 355 | 17.7 | 38.6 | 0.00 | 0.00 | 0.00 | 31 | 1008.7 |
| 20260503203753 | 13 | 329 | 17.7 | 38.6 | 0.00 | 0.00 | 0.00 | 32 | 1008.7 |
| 20260503202630 | 13 | 9 | 17.7 | 45.1 | 0.00 | 0.00 | 0.00 | 31 | 1008.8 |
| 20260503202130 | 14 | 325 | 19.3 | 45.1 | 0.00 | 0.00 | 0.00 | 31 | 1008.8 |
| 20260503201631 | 13 | 279 | 19.3 | 43.5 | 0.00 | 0.00 | 0.00 | 32 | 1008.7 |
| 20260503201131 | 13 | 285 | 19.3 | 40.2 | 0.00 | 0.00 | 0.00 | 30 | 1008.9 |
| 20260503200632 | 13 | 303 | 20.9 | 41.8 | 0.00 | 0.00 | 0.00 | 31 | 1009.0 |
| 20260503200127 | 13 | 274 | 20.9 | 41.8 | 0.00 | 0.00 | 0.00 | 31 | 1009.0 |
| 20260503195626 | 13 | 5 | 17.7 | 32.2 | 0.00 | 0.00 | 0.00 | 32 | 1009.1 |
| 20260503195357 | 14 | 44 | 16.1 | 30.6 | 0.00 | 0.00 | 0.00 | 32 | 1008.9 |
| 20260503194626 | 13 | 331 | 16.1 | 33.8 | 0.00 | 0.00 | 0.00 | 32 | 1008.9 |
| 20260503194131 | 14 | 355 | 14.5 | 33.8 | 0.00 | 0.00 | 0.00 | 30 | 1008.9 |
| 20260503194126 | 13 | 294 | 16.1 | 33.8 | 0.00 | 0.00 | 0.00 | 33 | 1009.0 |
| 20260503193127 | 14 | 304 | 16.1 | 33.8 | 0.00 | 0.00 | 0.00 | 31 | 1009.1 |
| 20260503192627 | 13 | 317 | 14.5 | 33.8 | 0.00 | 0.00 | 0.00 | 33 | 1009.0 |
| 20260503192128 | 14 | 350 | 12.9 | 32.2 | 0.00 | 0.00 | 0.00 | 32 | 1009.2 |
| 20260503191621 | 14 | 312 | 16.1 | 32.2 | 0.00 | 0.00 | 0.00 | 36 | 1009.1 |
| 20260503191346 | 13 | 344 | 16.1 | 33.8 | 0.00 | 0.00 | 0.00 | 34 | 1009.1 |
| 20260503190607 | 13 | 279 | 17.7 | 41.8 | 0.00 | 0.00 | 0.00 | 38 | 1009.3 |
| 20260503185825 | 12 | 323 | 17.7 | 35.4 | 0.00 | 0.00 | 0.00 | 35 | 1009.5 |
| 20260503185049 | 12 | 302 | 14.5 | 35.4 | 0.00 | 0.00 | 0.00 | 37 | 1009.7 |
| 20260503184543 | 13 | 341 | 12.9 | 30.6 | 0.00 | 0.00 | 0.00 | 34 | 1009.5 |
| 20260503184308 | 13 | 5 | 16.1 | 41.8 | 0.00 | 0.00 | 0.00 | 35 | 1009.6 |
| 20260503183531 | 13 | 281 | 17.7 | 41.8 | 0.00 | 0.00 | 0.00 | 36 | 1009.6 |
| 20260503183025 | 13 | 314 | 16.1 | 33.8 | 0.00 | 0.00 | 0.00 | 39 | 1009.5 |
| 20260503182519 | 12 | 17 | 17.7 | 37.0 | 0.00 | 0.00 | 0.00 | 36 | 1009.6 |
| 20260503182013 | 12 | 332 | 19.3 | 37.0 | 0.00 | 0.00 | 0.00 | 35 | 1009.8 |
| 20260503181737 | 13 | 0 | 17.7 | 41.8 | 0.00 | 0.00 | 0.00 | 34 | 1009.6 |
| 20260503181001 | 13 | 310 | 19.3 | 41.8 | 0.00 | 0.00 | 0.00 | 36 | 1009.8 |
| 20260503180455 | 12 | 265 | 19.3 | 40.2 | 0.00 | 0.00 | 0.00 | 39 | 1009.6 |
| 20260503175948 | 13 | 281 | 17.7 | 38.6 | 0.00 | 0.00 | 0.00 | 38 | 1009.7 |
| 20260503175442 | 12 | 355 | 19.3 | 38.6 | 0.00 | 0.00 | 0.00 | 36 | 1009.7 |
| 20260503174936 | 12 | 327 | 19.3 | 41.8 | 0.00 | 0.00 | 0.00 | 38 | 1009.7 |
| 20260503174430 | 12 | 266 | 19.3 | 41.8 | 0.00 | 0.00 | 0.00 | 40 | 1009.7 |
| 20260503173924 | 12 | 312 | 16.1 | 35.4 | 0.00 | 0.00 | 0.00 | 36 | 1009.9 |
| 20260503173418 | 12 | 313 | 14.5 | 29.0 | 0.00 | 0.00 | 0.00 | 39 | 1009.9 |
| 20260503172913 | 12 | 319 | 16.1 | 35.4 | 0.00 | 0.00 | 0.00 | 41 | 1009.9 |
| 20260503172407 | 12 | 37 | 14.5 | 35.4 | 0.00 | 0.00 | 0.00 | 38 | 1009.9 |
| 20260503171901 | 12 | 306 | 14.5 | 33.8 | 0.00 | 0.00 | 0.00 | 41 | 1010.1 |
| 20260503171625 | 11 | 330 | 17.7 | 33.8 | 0.00 | 0.00 | 0.00 | 42 | 1010.0 |
| 20260503170849 | 11 | 5 | 17.7 | 37.0 | 0.00 | 0.00 | 0.00 | 42 | 1010.1 |
| 20260503170343 | 11 | 335 | 16.1 | 37.0 | 0.00 | 0.00 | 0.00 | 41 | 1010.2 |